Lid_Strength_Index
10 10 11 11 11 11 11 11 10 10 10 10 10 10 10 10 11 11 11 12 13 13 12 12 12 11 13 9 9 9 9 7 9 6 5 6 8 7 7 6 8 6 6
10 11 11 11 11 11 11 11 10 11 10 10 10 10 10 11 11 12 13 13 13 13 12 12 13 12 12 12 10 10 9 8 8 8 8 7 7 6 8 7 8 7 6
11 11 12 12 12 11 11 11 11 10 10 10 10 10 11 11 12 13 13 13 13 13 13 11 12 13 13 12 11 10 10 8 8 7 8 7 7 7 9 9 9 8 6
11 12 12 12 12 12 12 11 11 10 10 10 10 10 10 12 12 13 13 13 13 13 12 11 12 12 12 12 12 10 8 8 7 8 9 9 8 9 9 10 11 12 11
12 12 12 12 12 12 12 11 10 10 10 10 10 10 11 12 13 13 13 14 15 14 12 11 11 11 11 10 11 10 9 8 8 8 10 11 10 10 11 11 12 15 16
12 12 12 13 12 12 12 11 11 10 10 10 11 11 11 13 13 12 13 15 15 15 13 13 12 11 11 9 9 10 8 7 8 8 8 9 10 10 11 11 13 15 18
12 12 13 13 13 13 12 11 11 11 11 11 12 12 12 13 13 12 13 15 15 14 13 12 13 10 10 9 9 9 9 7 6 7 9 8 10 11 11 11 12 16 18
12 12 13 14 14 13 12 12 12 11 12 12 12 12 12 13 13 12 13 14 15 14 11 11 11 10 10 10 10 9 9 9 8 8 6 7 9 10 10 12 15 17 17
12 13 13 14 14 13 13 13 12 12 12 12 12 12 13 13 12 12 14 15 15 14 11 8 9 9 8 8 9 9 9 9 6 6 6 6 8 10 12 14 15 19 20
13 13 14 14 14 14 13 13 12 12 12 12 12 12 12 13 12 12 13 15 16 16 13 9 8 8 7 7 8 8 8 8 8 10 10 11 12 12 11 13 14 17 20
13 14 15 14 14 13 12 13 13 12 12 12 13 12 12 12 13 12 13 15 16 16 17 14 10 7 6 5 6 7 8 8 9 12 13 13 13 13 13 14 15 16 18
13 14 15 14 14 14 13 13 13 12 12 12 13 12 11 12 12 13 13 14 14 16 17 16 16 13 11 9 9 8 10 12 14 15 15 15 16 16 16 18 18 18 18
14 15 16 14 14 14 13 13 13 12 12 12 12 12 12 11 11 12 13 14 15 16 16 16 16 16 16 16 14 14 15 16 17 18 18 19 19 18 19 21 21 21 21
14 15 15 14 14 14 14 13 13 12 12 12 13 13 13 12 12 12 13 13 15 16 16 16 17 17 17 18 18 18 19 19 19 19 19 19 18 17 18 18 21 21 23
13 14 14 14 14 14 14 13 13 12 12 12 12 12 13 13 12 12 13 14 14 15 16 17 18 19 19 19 20 20 19 19 20 20 21 20 20 20 21 20 21 21 23
14 14 14 14 13 14 14 14 12 12 12 12 12 11 11 12 12 13 13 13 14 14 15 17 18 19 19 20 20 20 20 21 21 21 22 22 22 23 23 23 22 22 23
13 14 14 14 14 14 15 14 14 13 12 12 12 12 12 12 12 13 14 14 14 15 17 18 18 18 18 19 19 20 21 21 21 21 22 22 22 22 21 22 22 23 23
13 13 13 14 14 13 14 14 13 14 13 13 13 13 13 13 13 13 14 14 15 16 18 18 19 18 19 19 19 19 19 19 19 20 20 20 21 21 21 21 21 22 23
13 12 12 13 13 13 14 14 13 13 13 12 13 13 15 14 15 15 15 14 15 16 17 18 18 19 19 19 19 19 19 19 19 20 20 20 20 20 21 21 22 22 22
12 12 12 13 13 14 14 14 14 14 13 12 12 13 14 16 14 16 17 16 16 17 17 18 18 19 19 19 19 19 20 20 20 20 20 20 20 21 22 22 22 22 23
11 11 12 13 13 14 14 14 14 14 14 13 12 12 14 14 15 16 17 17 16 17 17 17 18 19 19 19 19 19 20 20 21 21 21 22 21 22 22 22 23 24 25
11 11 12 13 13 14 15 14 14 14 14 14 13 14 13 15 15 16 17 17 18 17 18 18 18 18 19 19 19 19 21 21 22 22 23 23 23 23 23 24 24 25 25
12 12 12 13 13 14 15 15 14 14 15 15 15 15 14 14 15 16 17 17 19 20 20 19 19 20 20 20 19 19 20 21 21 22 23 23 23 23 23 24 25 25 25
12 12 12 12 13 15 15 15 15 15 16 16 16 16 17 14 15 15 16 18 19 19 20 21 20 20 21 20 20 20 20 21 22 22 22 23 24 24 24 25 25 25 26
12 12 12 13 14 15 16 15 15 16 17 16 17 17 17 16 15 15 16 18 19 20 22 22 21 21 22 22 22 21 23 23 22 23 22 23 24 24 25 25 25 25 26
12 12 12 13 13 15 16 16 16 16 16 16 16 17 17 17 16 16 16 18 19 20 20 21 22 22 22 22 22 23 25 24 25 24 23 24 24 25 25 25 26 26 26